| time (UTC) | temp F | wind direction | speed MPH | gust MPH | rain 1hr in | rain 24hr in | rain mn in | humidity % | barometer mb |
| 20260504044528 | 58 | 214 | 2.0 | 5.0 | 0.00 | 0.00 | 0.00 | 41 | 999.7 |
| 20260504043022 | 57 | 172 | 1.0 | 4.0 | 0.00 | 0.00 | 0.00 | 42 | 1000.4 |
| 20260504041520 | 57 | 214 | 0.0 | 4.0 | 0.00 | 0.00 | 0.00 | 42 | 1000.2 |
| 20260504040018 | 57 | 179 | 0.0 | 2.0 | 0.00 | 0.00 | 0.00 | 43 | 1001.0 |
| 20260504034516 | 57 | 176 | 0.0 | 2.0 | 0.00 | 0.00 | 0.00 | 42 | 1001.4 |
| 20260504033015 | 57 | 186 | 0.0 | 1.0 | 0.00 | 0.00 | 0.00 | 42 | 1001.2 |
| 20260504031514 | 58 | 198 | 0.0 | 0.0 | 0.00 | 0.00 | 0.00 | 42 | 1001.9 |
| 20260504030012 | 58 | 193 | 0.0 | 1.0 | 0.00 | 0.00 | 0.00 | 40 | 1002.2 |
| 20260504024511 | 59 | 210 | 0.0 | 1.0 | 0.00 | 0.00 | 0.00 | 39 | 1001.8 |
| 20260504023010 | 60 | 212 | 0.0 | 1.0 | 0.00 | 0.00 | 0.00 | 36 | 1002.4 |
| 20260504021509 | 60 | 222 | 0.0 | 2.0 | 0.00 | 0.00 | 0.00 | 35 | 1002.1 |
| 20260504020008 | 61 | 211 | 0.0 | 1.0 | 0.00 | 0.00 | 0.00 | 34 | 1001.9 |
| 20260504014509 | 62 | 211 | 0.0 | 1.0 | 0.00 | 0.00 | 0.00 | 31 | 1002.0 |
| 20260504013009 | 63 | 211 | 0.0 | 1.0 | 0.00 | 0.00 | 0.00 | 30 | 1002.0 |
| 20260504011507 | 65 | 212 | 0.0 | 1.0 | 0.00 | 0.00 | 0.00 | 29 | 1002.0 |
| 20260504010006 | 66 | 228 | 0.0 | 3.0 | 0.00 | 0.00 | 0.00 | 26 | 1002.1 |
| 20260504004509 | 67 | 256 | 1.0 | 5.0 | 0.00 | 0.00 | 0.00 | 26 | 1002.2 |
| 20260504003003 | 68 | 271 | 1.0 | 8.0 | 0.00 | 0.00 | 0.00 | 26 | 1002.3 |
| 20260504001502 | 68 | 223 | 1.0 | 7.0 | 0.00 | 0.00 | 0.00 | 26 | 1002.4 |
| 20260504000003 | 68 | 206 | 2.0 | 8.0 | 0.00 | 0.00 | 0.00 | 27 | 1002.5 |
| 20260503234502 | 69 | 257 | 4.0 | 10.0 | 0.00 | 0.00 | 0.00 | 25 | 1002.4 |
| 20260503233100 | 69 | 239 | 0.0 | 7.0 | 0.00 | 0.00 | 0.00 | 23 | 1002.6 |
| 20260503233006 | 70 | 251 | 1.0 | 7.0 | 0.00 | 0.00 | 0.00 | 23 | 1002.6 |
| 20260503231559 | 70 | 232 | 1.0 | 4.0 | 0.00 | 0.00 | 0.00 | 24 | 1002.6 |
| 20260503230058 | 71 | 235 | 4.0 | 7.0 | 0.00 | 0.00 | 0.00 | 23 | 1002.7 |
| 20260503224658 | 72 | 243 | 4.0 | 12.0 | 0.00 | 0.00 | 0.00 | 22 | 1002.8 |
| 20260503223055 | 72 | 230 | 1.0 | 6.0 | 0.00 | 0.00 | 0.00 | 21 | 1002.9 |
| 20260503221558 | 73 | 123 | 0.0 | 7.0 | 0.00 | 0.00 | 0.00 | 22 | 1002.9 |
| 20260503220053 | 71 | 272 | 4.0 | 9.0 | 0.00 | 0.00 | 0.00 | 22 | 1003.0 |
| 20260503214551 | 73 | 202 | 0.0 | 5.0 | 0.00 | 0.00 | 0.00 | 22 | 1003.3 |
| 20260503213050 | 73 | 299 | 0.0 | 5.0 | 0.00 | 0.00 | 0.00 | 22 | 1003.4 |
| 20260503211601 | 73 | 258 | 2.0 | 6.0 | 0.00 | 0.00 | 0.00 | 23 | 1003.6 |
| 20260503210048 | 72 | 103 | 1.0 | 9.0 | 0.00 | 0.00 | 0.00 | 22 | 1003.7 |
| 20260503204549 | 73 | 248 | 0.0 | 4.0 | 0.00 | 0.00 | 0.00 | 23 | 1003.8 |
| 20260503203103 | 73 | 327 | 1.0 | 5.0 | 0.00 | 0.00 | 0.00 | 23 | 1004.1 |
| 20260503201545 | 72 | 251 | 4.0 | 11.0 | 0.00 | 0.00 | 0.00 | 21 | 1004.1 |
| 20260503200045 | 72 | 259 | 3.0 | 9.0 | 0.00 | 0.00 | 0.00 | 20 | 1004.2 |
| 20260503194547 | 72 | 237 | 1.0 | 6.0 | 0.00 | 0.00 | 0.00 | 23 | 1004.4 |
| 20260503193041 | 71 | 327 | 2.0 | 5.0 | 0.00 | 0.00 | 0.00 | 24 | 1004.3 |
| 20260503191642 | 71 | 242 | 6.0 | 13.0 | 0.00 | 0.00 | 0.00 | 26 | 1004.5 |
| 20260503190045 | 71 | 101 | 1.0 | 7.0 | 0.00 | 0.00 | 0.00 | 26 | 1004.7 |
| 20260503184540 | 71 | 340 | 2.0 | 8.0 | 0.00 | 0.00 | 0.00 | 22 | 1004.8 |
| 20260503183037 | 72 | 154 | 1.0 | 8.0 | 0.00 | 0.00 | 0.00 | 23 | 1004.8 |
| 20260503181535 | 70 | 346 | 0.0 | 13.0 | 0.00 | 0.00 | 0.00 | 26 | 1004.9 |
| 20260503180034 | 71 | 19 | 1.0 | 6.0 | 0.00 | 0.00 | 0.00 | 27 | 1005.0 |
| 20260503174534 | 70 | 343 | 1.0 | 10.0 | 0.00 | 0.00 | 0.00 | 29 | 1005.1 |
| 20260503173045 | 70 | 51 | 1.0 | 4.0 | 0.00 | 0.00 | 0.00 | 35 | 1005.0 |
| 20260503171535 | 69 | 20 | 0.0 | 4.0 | 0.00 | 0.00 | 0.00 | 37 | 1005.2 |
| 20260503081522 | 57 | 189 | 1.0 | 7.0 | 0.00 | 0.00 | 0.00 | 52 | 1004.1 |
| 20260503071514 | 57 | 192 | 1.0 | 5.0 | 0.00 | 0.00 | 0.00 | 52 | 1004.6 |